Date,Time,Wetness (Wet Dry or Ice),Wind Speed (m/s),Temperature (C),Humidity (%),Pressure (mb),Radiation (W/m^2)
2019-03-12,03:55:00,DRY,1.30,10.00,5.0,780.00,2.6
2019-03-12,04:00:00,DRY,0.53,9.07,6.0,779.33,1.3
2019-03-12,04:05:00,DRY,1.15,9.30,5.5,780.00,1.7
2019-03-12,04:10:00,DRY,1.30,9.67,5.7,780.00,1.9
2019-03-12,04:15:00,DRY,1.40,9.60,5.0,780.00,1.9
2019-03-12,04:20:00,DRY,1.53,9.80,5.0,779.33,1.0
2019-03-12,04:25:00,DRY,1.90,10.20,4.0,779.00,2.0
2019-03-12,04:30:00,DRY,2.30,10.73,3.3,779.00,1.7
2019-03-12,04:35:00,DRY,1.25,10.70,3.5,779.00,0.6
2019-03-12,04:40:00,DRY,1.33,10.20,4.0,779.00,0.9
2019-03-12,04:45:00,DRY,1.75,10.55,3.5,779.00,1.0
2019-03-12,04:50:00,DRY,2.17,10.73,3.3,779.00,0.8
2019-03-12,04:55:00,DRY,2.95,11.10,3.0,779.00,0.9
2019-03-12,05:00:00,DRY,2.67,11.20,3.0,779.00,1.6
2019-03-12,05:05:00,DRY,2.05,11.30,3.0,779.00,0.6
2019-03-12,05:10:00,DRY,1.07,10.67,3.7,779.00,1.1
2019-03-12,05:15:00,DRY,2.05,10.40,3.0,779.00,1.1
2019-03-12,05:20:00,DRY,1.80,10.17,4.0,779.00,1.5
2019-03-12,05:25:00,DRY,2.00,10.50,3.0,779.00,1.9
2019-03-12,05:30:00,DRY,2.07,10.77,3.0,779.00,1.0
2019-03-12,05:35:00,DRY,2.05,10.85,3.0,779.00,0.5
2019-03-12,05:40:00,DRY,1.70,10.53,3.0,779.00,0.6
2019-03-12,05:45:00,DRY,1.40,10.50,3.0,779.00,1.6
2019-03-12,05:50:00,DRY,2.27,10.57,3.0,779.00,0.8
2019-03-12,05:55:00,DRY,1.20,10.60,3.0,779.00,1.8
2019-03-12,06:00:00,DRY,1.37,10.60,3.0,779.00,2.5
2019-03-12,06:05:00,DRY,3.40,10.70,3.0,779.00,1.2
2019-03-12,06:10:00,DRY,2.23,10.83,3.0,779.00,0.5
2019-03-12,06:15:00,DRY,3.55,10.65,3.0,779.00,1.5
2019-03-12,06:20:00,DRY,2.97,10.63,3.0,779.00,1.6
2019-03-12,06:25:00,DRY,2.70,10.60,3.0,779.00,1.1
2019-03-12,06:30:00,DRY,2.73,10.67,2.7,779.00,1.6
2019-03-12,06:35:00,DRY,2.55,10.90,2.5,779.00,2.8
2019-03-12,06:40:00,DRY,2.23,10.63,2.7,779.00,1.4
2019-03-12,06:45:00,DRY,2.30,10.50,3.0,779.00,1.7
2019-03-12,06:50:00,DRY,2.07,10.27,3.0,779.00,0.9
2019-03-12,06:55:00,DRY,1.60,10.30,3.0,779.00,1.5
2019-03-12,07:00:00,DRY,0.83,10.27,3.0,779.00,1.1
2019-03-12,07:05:00,DRY,0.85,10.10,3.0,779.00,2.7
2019-03-12,07:10:00,DRY,0.83,10.30,3.0,779.00,2.8
2019-03-12,07:15:00,DRY,1.05,10.30,3.0,779.50,2.9
2019-03-12,07:20:00,DRY,1.13,9.93,3.0,779.67,4.8
2019-03-12,07:25:00,DRY,0.75,10.05,3.0,780.00,6.8
2019-03-12,07:30:00,DRY,0.83,10.03,3.3,780.00,9.1
2019-03-12,07:35:00,DRY,1.40,9.85,3.5,780.00,12.4
2019-03-12,07:40:00,DRY,1.33,9.87,3.7,780.00,14.4
2019-03-12,07:45:00,DRY,1.55,9.60,4.0,780.00,15.8
2019-03-12,07:50:00,DRY,1.93,9.57,4.7,780.00,17.7
2019-03-12,07:55:00,DRY,1.90,9.55,5.0,780.00,18.8
2019-03-12,08:00:00,DRY,1.80,9.77,4.0,780.00,78.3
2019-03-12,08:05:00,DRY,2.10,9.90,4.0,780.00,165.9
2019-03-12,08:10:00,DRY,2.77,10.00,4.0,780.00,189.2
2019-03-12,08:15:00,DRY,2.80,10.15,4.5,780.00,210.1
2019-03-12,08:20:00,DRY,2.53,10.27,4.0,780.00,232.2
2019-03-12,08:25:00,DRY,3.40,10.50,4.0,780.00,254.1
2019-03-12,08:30:00,DRY,2.63,10.53,4.0,780.00,276.8
2019-03-12,08:35:00,DRY,2.85,10.40,4.5,780.00,299.2
2019-03-12,08:40:00,DRY,1.73,10.17,5.0,780.00,320.9
2019-03-12,08:45:00,DRY,1.20,10.40,5.0,780.00,343.0
2019-03-12,08:50:00,DRY,0.67,10.73,4.7,780.00,365.4
2019-03-12,08:55:00,DRY,0.55,11.30,4.0,780.00,386.4
2019-03-12,09:00:00,DRY,1.07,11.27,5.0,780.00,408.1
2019-03-12,09:05:00,DRY,0.80,11.35,4.5,780.00,430.0
2019-03-12,09:10:00,DRY,0.87,11.10,5.0,780.00,450.5
2019-03-12,09:15:00,DRY,1.30,11.00,5.5,780.00,471.9
2019-03-12,09:20:00,DRY,1.07,10.70,7.3,780.00,491.8
2019-03-12,09:25:00,DRY,0.40,11.05,7.0,780.00,512.2
2019-03-12,09:30:00,DRY,0.67,11.30,6.7,780.00,532.3
2019-03-12,09:35:00,DRY,0.45,11.40,7.0,780.00,552.8
2019-03-12,09:40:00,DRY,0.83,11.73,6.7,780.00,571.8
2019-03-12,09:45:00,DRY,0.80,11.65,7.5,780.00,590.9
2019-03-12,09:50:00,DRY,0.90,11.73,7.0,780.00,609.6
2019-03-12,09:55:00,DRY,1.30,11.70,7.5,780.00,628.5
2019-03-12,10:00:00,DRY,2.53,11.13,7.7,780.00,644.8
2019-03-12,10:05:00,DRY,3.00,10.80,10.0,780.00,661.6
2019-03-12,10:10:00,DRY,2.43,10.63,9.0,780.00,678.1
2019-03-12,10:15:00,DRY,1.70,10.65,10.5,780.00,695.3
2019-03-12,10:20:00,DRY,2.63,10.77,9.7,780.00,712.3
2019-03-12,10:25:00,DRY,2.60,10.40,9.5,780.00,728.5
2019-03-12,10:30:00,DRY,2.17,10.47,11.0,780.33,742.3
2019-03-12,10:35:00,DRY,2.60,10.65,11.5,780.50,758.7
2019-03-12,10:40:00,DRY,1.97,10.73,12.0,780.67,772.9
2019-03-12,10:45:00,DRY,2.55,10.75,11.0,781.00,788.4
2019-03-12,10:50:00,DRY,2.20,10.60,11.3,780.67,801.2
2019-03-12,10:55:00,DRY,3.65,10.35,12.5,780.50,815.5
2019-03-12,11:00:00,DRY,2.60,10.50,12.3,780.67,828.8
2019-03-12,11:05:00,DRY,1.15,10.85,13.5,781.00,840.2
2019-03-12,11:10:00,DRY,3.37,11.03,12.0,781.00,852.4
2019-03-12,11:15:00,DRY,3.65,10.70,12.5,781.00,865.5
2019-03-12,11:20:00,DRY,3.47,10.37,13.0,781.00,876.7
2019-03-12,11:25:00,DRY,2.55,10.65,14.0,781.00,886.9
2019-03-12,11:30:00,DRY,2.30,11.10,14.7,781.00,898.1
2019-03-12,11:35:00,DRY,3.20,11.35,15.0,781.00,908.4
2019-03-12,11:40:00,DRY,2.07,10.70,14.7,781.00,918.1
2019-03-12,11:45:00,DRY,2.70,10.30,15.5,781.00,926.0
2019-03-12,11:50:00,DRY,2.67,10.80,16.3,781.00,935.5
2019-03-12,11:55:00,DRY,2.25,10.70,17.0,781.00,943.5
2019-03-12,12:00:00,DRY,2.30,11.00,17.0,781.00,951.9
2019-03-12,12:05:00,DRY,2.10,11.00,15.5,781.00,959.5
2019-03-12,12:10:00,DRY,1.07,11.17,17.0,781.00,965.7
2019-03-12,12:15:00,DRY,1.60,11.35,19.0,781.00,971.5
2019-03-12,12:20:00,DRY,1.57,11.20,19.3,781.00,979.8
2019-03-12,12:25:00,DRY,1.85,11.00,20.0,781.00,984.8
2019-03-12,12:30:00,DRY,2.13,10.90,20.7,780.67,988.8
2019-03-12,12:35:00,DRY,2.90,11.15,21.5,780.00,994.5
2019-03-12,12:40:00,DRY,1.87,10.90,23.7,780.67,997.4
2019-03-12,12:45:00,DRY,2.15,11.05,25.5,780.00,997.8
2019-03-12,12:50:00,DRY,2.07,10.80,26.0,780.00,1005.9
2019-03-12,12:55:00,DRY,1.75,11.25,24.0,780.00,1007.4
2019-03-12,13:00:00,DRY,1.93,11.30,28.0,780.33,1006.9
2019-03-12,13:05:00,DRY,1.55,10.90,27.5,780.00,1008.7
2019-03-12,13:10:00,DRY,2.67,10.80,29.7,780.00,1008.5
2019-03-12,13:15:00,DRY,3.00,10.45,33.0,780.00,1008.4
2019-03-12,13:20:00,DRY,1.77,11.17,33.3,780.00,1009.2
2019-03-12,13:25:00,DRY,0.90,10.90,33.0,780.00,1007.5
2019-03-12,13:30:00,DRY,1.70,11.00,35.0,780.00,1009.7
2019-03-12,13:35:00,DRY,1.10,10.60,39.0,780.00,1009.0
2019-03-12,13:40:00,DRY,1.60,10.70,36.3,780.00,1006.7
2019-03-12,13:45:00,DRY,1.70,11.10,38.0,780.00,1002.1
2019-03-12,13:50:00,DRY,2.07,10.80,40.0,780.00,1000.4
2019-03-12,13:55:00,DRY,1.85,10.90,42.0,780.00,995.2
2019-03-12,14:00:00,DRY,2.00,10.95,42.0,780.00,992.4
2019-03-12,14:05:00,DRY,1.65,11.20,40.0,780.00,984.8
2019-03-12,14:10:00,DRY,1.20,11.50,40.3,780.00,980.8
2019-03-12,14:15:00,DRY,1.60,11.15,44.5,780.00,976.8
2019-03-12,14:20:00,DRY,1.77,11.23,45.3,780.00,970.3
2019-03-12,14:25:00,DRY,1.20,11.05,43.0,780.00,961.7
2019-03-12,14:30:00,DRY,0.73,11.27,46.0,780.00,959.7
2019-03-12,14:35:00,DRY,1.55,10.80,50.0,780.00,951.9
2019-03-12,14:40:00,DRY,3.20,10.77,49.0,780.00,944.2
2019-03-12,14:45:00,DRY,1.40,11.20,49.5,780.00,937.4
2019-03-12,14:50:00,DRY,2.17,10.63,51.3,780.00,923.7
2019-03-12,14:55:00,DRY,1.50,10.75,51.5,780.00,915.2
2019-03-12,15:00:00,DRY,2.57,10.43,55.7,780.00,906.5
2019-03-12,15:05:00,DRY,2.15,9.95,56.0,780.00,897.3
2019-03-12,15:10:00,DRY,1.80,10.10,55.3,779.67,886.4
2019-03-12,15:15:00,DRY,2.05,10.60,55.0,780.00,877.6
2019-03-12,15:20:00,DRY,1.80,11.03,54.7,779.33,866.7
2019-03-12,15:25:00,DRY,2.65,10.45,54.0,779.50,855.3
2019-03-12,15:30:00,DRY,2.60,10.77,52.7,779.00,843.5
2019-03-12,15:35:00,DRY,1.95,10.65,52.5,779.00,830.2
2019-03-12,15:40:00,DRY,2.30,10.60,52.3,779.00,818.8
2019-03-12,15:45:00,DRY,2.95,10.70,50.5,779.00,805.2
2019-03-12,15:50:00,DRY,2.87,10.63,49.7,779.00,790.6
2019-03-12,15:55:00,DRY,2.10,10.65,48.5,780.00,774.3
2019-03-12,16:00:00,DRY,2.17,11.00,47.0,779.00,762.2
2019-03-12,16:05:00,DRY,3.15,10.40,48.0,779.00,746.3
2019-03-12,16:10:00,DRY,3.47,10.83,43.7,779.00,733.2
2019-03-12,16:15:00,DRY,2.40,10.80,42.0,780.00,716.9
2019-03-12,16:20:00,DRY,2.60,11.10,34.0,779.33,700.9
2019-03-12,16:25:00,DRY,2.15,11.45,28.0,779.50,685.0
2019-03-12,16:30:00,DRY,1.43,11.33,33.3,779.67,665.6
2019-03-12,16:35:00,DRY,1.80,11.45,16.5,779.50,647.3
2019-03-12,16:40:00,DRY,1.33,11.80,22.0,779.33,628.8
2019-03-12,16:45:00,DRY,0.85,12.15,17.5,779.50,609.8
2019-03-12,16:50:00,DRY,1.30,12.43,40.7,779.00,590.2
2019-03-12,16:55:00,DRY,1.30,11.40,47.0,779.00,567.2
2019-03-12,17:00:00,DRY,1.37,11.20,50.0,779.00,545.9
2019-03-12,17:05:00,DRY,1.10,10.90,48.5,779.00,527.8
2019-03-12,17:10:00,DRY,1.17,10.93,48.0,779.00,507.3
2019-03-12,17:15:00,DRY,1.25,10.95,51.0,779.50,487.0
2019-03-12,17:20:00,DRY,0.65,10.65,51.5,779.00,462.9
2019-03-12,17:25:00,DRY,1.00,10.95,51.0,779.00,447.8
2019-03-12,17:30:00,DRY,1.20,10.57,52.7,779.00,426.0
2019-03-12,17:35:00,DRY,0.90,10.40,53.0,779.00,406.5
2019-03-12,17:40:00,DRY,0.93,10.63,52.3,779.00,382.7
2019-03-12,17:45:00,DRY,0.80,10.95,51.5,779.00,360.9
2019-03-12,17:50:00,DRY,0.87,10.47,53.3,779.00,340.6
2019-03-12,17:55:00,DRY,0.95,10.50,53.0,779.50,316.9
2019-03-12,18:00:00,DRY,0.77,10.37,52.7,780.00,297.0
2019-03-12,18:05:00,DRY,0.90,10.15,53.5,780.00,275.6
2019-03-12,18:10:00,DRY,0.97,9.90,54.3,779.67,253.3
2019-03-12,18:15:00,DRY,0.30,9.65,55.5,780.00,232.7
2019-03-12,18:20:00,DRY,0.57,9.90,53.7,780.00,211.2
2019-03-12,18:25:00,DRY,1.20,9.80,56.5,780.00,190.8
2019-03-12,18:30:00,DRY,1.10,10.20,50.7,780.00,171.0
2019-03-12,18:35:00,DRY,0.85,10.50,40.0,780.00,110.3
2019-03-12,18:40:00,DRY,0.60,10.33,31.7,780.00,25.8
2019-03-12,18:45:00,DRY,0.40,10.20,31.0,780.00,22.9
2019-03-12,18:50:00,DRY,0.50,10.10,31.7,780.00,20.6
2019-03-12,18:55:00,DRY,0.60,9.85,36.5,780.00,18.6
2019-03-12,19:00:00,DRY,0.47,9.67,45.0,780.00,17.3
2019-03-12,19:05:00,DRY,1.00,9.25,53.5,780.00,14.7
2019-03-12,19:10:00,DRY,1.00,9.23,51.0,780.00,12.1
2019-03-12,19:15:00,DRY,0.95,9.35,57.0,780.00,8.9
2019-03-12,19:20:00,DRY,1.10,9.20,56.7,780.00,6.5
2019-03-12,19:25:00,DRY,1.65,8.90,58.0,780.00,3.7
2019-03-12,19:30:00,DRY,1.90,8.87,51.3,780.00,1.5
2019-03-12,19:35:00,DRY,1.75,8.70,53.0,780.00,1.7
2019-03-12,19:40:00,DRY,1.03,9.07,30.0,780.00,1.1
2019-03-12,19:45:00,DRY,1.40,9.40,18.5,780.00,0.8
2019-03-12,19:50:00,DRY,1.00,9.37,19.0,780.00,1.4
2019-03-12,19:55:00,DRY,1.40,9.15,22.0,780.00,1.9
2019-03-12,20:00:00,DRY,1.53,8.77,19.7,780.00,0.9
2019-03-12,20:05:00,DRY,1.75,8.65,16.0,780.00,1.9
2019-03-12,20:10:00,DRY,1.83,8.83,13.0,780.00,1.3
2019-03-12,20:15:00,DRY,1.90,8.95,12.0,780.00,2.0
2019-03-12,20:20:00,DRY,2.97,9.10,13.0,780.00,1.1
2019-03-12,20:25:00,DRY,2.70,8.75,14.0,780.00,2.0
2019-03-12,20:30:00,DRY,2.70,9.00,14.0,780.00,1.0
2019-03-12,20:35:00,DRY,2.25,9.00,14.0,780.00,1.1
2019-03-12,20:40:00,DRY,2.47,9.00,13.0,780.33,0.8
2019-03-12,20:45:00,DRY,2.10,9.25,13.0,780.00,0.8
2019-03-12,20:50:00,DRY,2.07,9.30,13.0,780.33,0.9
2019-03-12,20:55:00,DRY,1.90,9.25,13.0,780.50,1.5
2019-03-12,21:00:00,DRY,1.93,9.30,12.7,781.00,1.2
2019-03-12,21:05:00,DRY,2.35,9.30,13.0,781.00,1.6
2019-03-12,21:10:00,DRY,2.03,9.30,12.7,780.67,1.0
2019-03-12,21:15:00,DRY,1.70,9.35,12.5,781.00,1.2
2019-03-12,21:20:00,DRY,1.40,9.27,11.7,781.00,1.1
2019-03-12,21:25:00,DRY,2.15,9.20,12.0,781.00,1.0
2019-03-12,21:30:00,DRY,3.10,9.33,12.0,781.00,1.4
2019-03-12,21:35:00,DRY,2.35,9.35,12.0,781.00,0.6
2019-03-12,21:40:00,DRY,1.83,9.57,11.0,781.00,0.9
2019-03-12,21:45:00,DRY,1.65,9.75,10.5,781.00,0.5
2019-03-12,21:50:00,DRY,2.47,9.47,9.7,781.00,2.1
2019-03-12,21:55:00,DRY,2.65,9.75,6.5,781.00,1.4
2019-03-12,22:00:00,DRY,2.97,9.73,5.3,781.00,1.3
2019-03-12,22:05:00,DRY,2.85,9.95,4.5,781.00,1.9
2019-03-12,22:10:00,DRY,3.30,9.93,4.0,781.00,1.0
2019-03-12,22:15:00,DRY,3.00,10.05,4.0,781.00,1.6
2019-03-12,22:20:00,DRY,3.20,10.13,3.3,781.00,1.1
2019-03-12,22:25:00,DRY,2.45,10.30,3.5,781.00,1.1
2019-03-12,22:30:00,DRY,2.63,9.90,4.0,781.00,0.6
2019-03-12,22:35:00,DRY,1.80,9.95,3.5,781.00,1.4
2019-03-12,22:40:00,DRY,1.27,9.90,4.7,781.00,0.9
2019-03-12,22:45:00,DRY,1.20,9.45,6.5,781.00,1.9
2019-03-12,22:50:00,DRY,1.90,9.67,3.7,781.00,1.2
2019-03-12,22:55:00,DRY,1.75,10.05,3.0,781.00,0.9
2019-03-12,23:00:00,DRY,1.73,9.90,2.7,781.00,1.2
2019-03-12,23:05:00,DRY,1.35,10.05,3.0,781.00,1.5
2019-03-12,23:10:00,DRY,1.70,10.00,3.0,781.00,1.4
2019-03-12,23:15:00,DRY,0.90,9.95,3.0,781.00,0.7
2019-03-12,23:20:00,DRY,2.07,9.80,4.3,781.00,0.4
2019-03-12,23:25:00,DRY,1.95,9.65,5.5,781.00,0.9
2019-03-12,23:30:00,DRY,1.63,9.63,4.7,781.00,1.7
2019-03-12,23:35:00,DRY,1.60,9.80,4.0,781.00,2.4
2019-03-12,23:40:00,DRY,2.33,9.63,4.3,781.00,0.9
2019-03-12,23:45:00,DRY,2.80,9.80,4.0,780.50,1.1
2019-03-12,23:50:00,DRY,2.83,9.67,4.3,780.33,0.9
2019-03-12,23:55:00,DRY,2.50,9.75,4.0,780.00,2.2
2019-03-13,00:00:00,DRY,2.00,9.67,4.3,780.33,1.9
2019-03-13,00:05:00,DRY,0.95,9.70,4.0,780.50,2.0
2019-03-13,00:10:00,DRY,1.43,9.50,4.7,780.00,1.0
2019-03-13,00:15:00,DRY,1.75,9.25,5.0,780.00,0.0
2019-03-13,00:20:00,DRY,2.60,9.53,4.7,780.00,1.2
2019-03-13,00:25:00,DRY,2.65,9.70,5.0,780.00,1.4
2019-03-13,00:30:00,DRY,2.53,9.70,5.0,780.00,0.7
2019-03-13,00:35:00,DRY,2.05,9.85,4.5,780.00,1.8
2019-03-13,00:40:00,DRY,1.80,9.93,4.3,780.00,0.8
2019-03-13,00:45:00,DRY,1.10,9.60,4.5,780.00,1.5
2019-03-13,00:50:00,DRY,1.47,9.60,4.7,780.00,0.8
2019-03-13,00:55:00,DRY,1.55,9.95,4.0,780.00,0.6
2019-03-13,01:00:00,DRY,2.03,9.80,4.3,780.00,1.6
2019-03-13,01:05:00,DRY,1.80,9.90,4.5,780.00,1.0
2019-03-13,01:10:00,DRY,1.63,10.10,4.0,780.00,1.3
2019-03-13,01:15:00,DRY,1.50,10.05,4.0,780.00,1.6
2019-03-13,01:20:00,DRY,2.57,10.03,4.3,780.00,1.8
2019-03-13,01:25:00,DRY,2.30,10.20,4.0,780.00,1.2
2019-03-13,01:30:00,DRY,1.23,9.80,4.7,780.00,1.4
2019-03-13,01:35:00,DRY,1.35,9.40,5.0,780.00,1.7
2019-03-13,01:40:00,DRY,1.73,9.50,5.0,780.00,2.7
2019-03-13,01:45:00,DRY,1.10,9.40,5.0,780.00,1.9
2019-03-13,01:50:00,DRY,0.60,9.30,4.7,780.00,1.0
2019-03-13,01:55:00,DRY,1.25,9.20,5.0,780.00,1.6
2019-03-13,02:00:00,DRY,2.40,9.27,4.7,780.00,0.5
2019-03-13,02:05:00,DRY,2.30,9.25,5.0,780.00,1.0
2019-03-13,02:10:00,DRY,1.87,9.13,5.0,780.00,0.4
2019-03-13,02:15:00,DRY,1.40,9.35,4.0,780.00,2.1
2019-03-13,02:20:00,DRY,1.47,9.23,4.7,780.00,1.2
2019-03-13,02:25:00,DRY,0.60,9.20,4.0,780.00,1.1
2019-03-13,02:30:00,DRY,1.03,9.13,4.0,780.00,0.9
2019-03-13,02:35:00,DRY,1.90,9.00,4.5,780.00,1.1
2019-03-13,02:40:00,DRY,2.47,9.10,4.3,779.33,1.3
2019-03-13,02:45:00,DRY,2.50,9.00,4.0,779.00,1.2
2019-03-13,02:50:00,DRY,1.93,8.97,4.0,779.00,1.0
2019-03-13,02:55:00,DRY,1.95,8.70,5.0,779.00,0.8
2019-03-13,03:00:00,DRY,2.03,8.63,5.0,779.00,2.2
2019-03-13,03:05:00,DRY,2.05,8.85,5.0,779.00,0.6
2019-03-13,03:10:00,DRY,2.37,8.70,5.0,779.00,1.1
2019-03-13,03:15:00,DRY,2.60,9.10,4.5,779.00,1.7
2019-03-13,03:20:00,DRY,3.00,9.33,4.0,779.00,1.6
2019-03-13,03:25:00,DRY,3.25,9.60,4.0,779.00,3.5
2019-03-13,03:30:00,DRY,2.73,9.37,4.3,779.00,1.0
2019-03-13,03:35:00,DRY,1.40,9.15,5.0,779.00,0.8
2019-03-13,03:40:00,DRY,1.40,9.03,5.0,779.00,0.9
2019-03-13,03:45:00,DRY,2.55,9.10,5.0,779.00,0.9
2019-03-13,03:50:00,DRY,2.60,8.97,5.0,779.00,1.1
2019-03-13,03:55:00,DRY,2.50,9.05,5.0,779.00,1.2
2019-03-13,04:00:00,DRY,2.93,9.13,5.0,779.00,1.0
2019-03-13,04:05:00,DRY,2.65,9.45,5.0,779.00,0.7
2019-03-13,04:10:00,DRY,2.23,9.40,5.0,779.00,1.0
2019-03-13,04:15:00,DRY,2.10,9.35,5.0,779.00,1.7
2019-03-13,04:20:00,DRY,1.63,9.17,5.0,779.00,1.4
2019-03-13,04:25:00,DRY,1.15,9.35,5.0,779.00,1.6
2019-03-13,04:30:00,DRY,2.27,9.23,5.3,778.33,0.8
2019-03-13,04:35:00,DRY,2.80,8.80,6.0,778.50,1.5
2019-03-13,04:40:00,DRY,3.50,8.57,6.0,778.67,1.2
2019-03-13,04:45:00,DRY,3.25,8.50,6.0,778.00,2.1
2019-03-13,04:50:00,DRY,2.67,8.60,6.0,779.00,1.0
2019-03-13,04:55:00,DRY,2.95,8.95,5.5,778.50,1.6
2019-03-13,05:00:00,DRY,2.57,8.97,6.0,778.00,1.3
2019-03-13,05:05:00,DRY,3.15,8.85,6.0,778.00,1.2
2019-03-13,05:10:00,DRY,2.57,9.00,6.0,778.00,1.1
2019-03-13,05:15:00,DRY,2.85,9.05,6.0,778.00,1.6
2019-03-13,05:20:00,DRY,2.67,9.00,6.0,778.00,0.9
2019-03-13,05:25:00,DRY,3.30,8.65,6.5,778.00,0.9
2019-03-13,05:30:00,DRY,2.80,8.97,6.0,778.00,0.8
2019-03-13,05:35:00,DRY,3.15,8.95,6.5,778.00,1.8
2019-03-13,05:40:00,DRY,3.27,8.60,6.7,778.33,1.1
2019-03-13,05:45:00,DRY,3.40,8.50,7.0,778.50,1.3
2019-03-13,05:50:00,DRY,3.30,8.50,7.0,778.67,1.7
2019-03-13,05:55:00,DRY,3.35,8.50,7.0,778.50,0.8
2019-03-13,06:00:00,DRY,3.17,8.23,7.0,778.00,1.1
2019-03-13,06:05:00,DRY,2.95,8.20,7.0,778.50,1.0
2019-03-13,06:10:00,DRY,2.47,8.83,6.3,778.67,1.1
2019-03-13,06:15:00,DRY,3.10,9.00,6.5,779.00,1.5
2019-03-13,06:20:00,DRY,3.20,8.57,7.0,779.00,0.8
2019-03-13,06:25:00,DRY,3.60,8.40,7.0,779.00,1.5
2019-03-13,06:30:00,DRY,3.07,8.27,7.0,778.67,1.3
2019-03-13,06:35:00,DRY,2.85,8.45,7.0,779.00,1.2
2019-03-13,06:40:00,DRY,2.63,8.80,7.0,779.00,0.9
2019-03-13,06:45:00,DRY,1.80,8.95,6.5,779.00,0.5
2019-03-13,06:50:00,DRY,1.60,9.07,6.3,779.00,0.9
2019-03-13,06:55:00,DRY,1.60,9.10,6.0,779.00,1.9
2019-03-13,07:00:00,DRY,1.87,8.97,6.7,779.00,2.1
2019-03-13,07:05:00,DRY,2.55,8.55,7.0,779.00,1.2
2019-03-13,07:10:00,DRY,3.10,8.30,7.0,779.00,2.0
2019-03-13,07:15:00,DRY,3.10,8.35,7.0,779.00,2.8
2019-03-13,07:20:00,DRY,3.13,8.00,8.0,779.00,5.0
2019-03-13,07:25:00,DRY,3.35,7.55,8.0,779.00,7.5
2019-03-13,07:30:00,DRY,3.27,7.50,8.3,779.00,9.4
2019-03-13,07:35:00,DRY,2.80,7.35,8.5,779.00,12.6
2019-03-13,07:40:00,DRY,3.00,7.40,9.0,779.00,13.9
2019-03-13,07:45:00,DRY,3.25,7.35,9.0,779.00,16.5
2019-03-13,07:50:00,DRY,2.97,7.33,9.0,779.00,18.1
2019-03-13,07:55:00,DRY,3.60,7.70,9.0,779.00,20.0
2019-03-13,08:00:00,DRY,2.80,7.67,9.0,779.00,78.3
2019-03-13,08:05:00,DRY,3.20,7.85,9.5,779.00,170.6
2019-03-13,08:10:00,DRY,2.67,7.77,9.7,779.00,193.1
2019-03-13,08:15:00,DRY,2.30,8.10,9.0,779.00,213.7
2019-03-13,08:20:00,DRY,2.83,8.00,10.0,779.00,236.9
2019-03-13,08:25:00,DRY,2.75,8.35,9.0,779.00,258.2
2019-03-13,08:30:00,DRY,2.07,8.63,9.0,779.00,281.7
2019-03-13,08:35:00,DRY,1.80,8.85,9.0,779.00,303.7
2019-03-13,08:40:00,DRY,1.60,9.13,9.3,779.00,326.8
2019-03-13,08:45:00,DRY,1.95,9.20,8.5,779.00,348.1
2019-03-13,08:50:00,DRY,0.57,9.87,8.0,779.00,370.3
2019-03-13,08:55:00,DRY,0.55,10.15,8.0,779.00,392.6
2019-03-13,09:00:00,DRY,0.80,10.50,8.7,779.00,413.7
2019-03-13,09:05:00,DRY,0.35,11.00,7.5,779.00,435.5
2019-03-13,09:10:00,DRY,0.50,10.97,8.0,779.00,456.5
2019-03-13,09:15:00,DRY,0.65,11.65,8.0,779.00,477.9
2019-03-13,09:20:00,DRY,0.73,11.23,8.7,779.00,497.6
2019-03-13,09:25:00,DRY,0.45,11.35,7.5,779.00,519.0
2019-03-13,09:30:00,DRY,0.80,10.97,10.0,779.00,538.5
2019-03-13,09:35:00,DRY,0.60,10.75,9.0,779.00,559.3
2019-03-13,09:40:00,DRY,1.47,10.80,10.7,779.00,578.7
2019-03-13,09:45:00,DRY,2.60,10.05,11.0,779.00,596.6
2019-03-13,09:50:00,DRY,2.03,10.27,12.3,779.00,615.8
2019-03-13,09:55:00,DRY,1.90,10.15,13.5,779.00,633.6
2019-03-13,10:00:00,DRY,0.77,10.73,13.3,779.00,651.3
2019-03-13,10:05:00,DRY,1.10,10.75,11.5,779.00,668.3
2019-03-13,10:10:00,DRY,1.27,10.17,11.7,779.00,685.9
2019-03-13,10:15:00,DRY,0.85,9.95,11.0,779.00,703.4
2019-03-13,10:20:00,DRY,1.10,10.30,12.0,779.00,721.1
2019-03-13,10:25:00,DRY,0.55,10.75,14.0,779.00,734.9
2019-03-13,10:30:00,DRY,0.83,11.70,13.3,779.00,750.6
2019-03-13,10:35:00,DRY,1.00,11.85,14.0,779.00,767.8
2019-03-13,10:40:00,DRY,1.03,11.87,14.7,779.00,782.5
2019-03-13,10:45:00,DRY,1.00,12.10,15.0,779.00,796.5
2019-03-13,10:50:00,DRY,1.33,11.97,15.0,779.00,810.5
2019-03-13,10:55:00,DRY,1.35,11.60,15.5,779.00,821.9
2019-03-13,11:00:00,DRY,0.87,11.47,16.0,779.00,836.1
2019-03-13,11:05:00,DRY,1.30,11.70,17.5,779.00,848.0
2019-03-13,11:10:00,DRY,1.30,11.73,17.3,779.00,860.5
2019-03-13,11:15:00,DRY,1.45,11.50,18.5,779.00,872.0
2019-03-13,11:20:00,DRY,1.00,11.67,18.7,779.00,882.9
2019-03-13,11:25:00,DRY,1.55,11.85,19.0,779.00,891.5
2019-03-13,11:30:00,DRY,1.37,12.13,22.0,779.00,905.4
2019-03-13,11:35:00,DRY,0.85,11.95,22.5,779.00,915.2
2019-03-13,11:40:00,DRY,1.17,12.27,22.0,779.00,922.2
2019-03-13,11:45:00,DRY,1.50,11.85,21.0,779.00,930.4
2019-03-13,11:50:00,DRY,1.37,11.53,28.0,779.00,942.7
2019-03-13,11:55:00,DRY,1.05,11.45,28.0,779.00,946.5
2019-03-13,12:00:00,DRY,2.43,11.87,27.0,779.00,953.3
2019-03-13,12:05:00,DRY,1.20,12.20,29.0,779.00,957.2
2019-03-13,12:10:00,DRY,1.60,12.23,31.0,779.00,964.7
2019-03-13,12:15:00,DRY,1.55,11.50,31.5,779.00,970.8
2019-03-13,12:20:00,DRY,1.87,11.93,33.3,778.67,978.8
2019-03-13,12:25:00,DRY,1.00,11.90,32.5,778.50,984.8
2019-03-13,12:30:00,DRY,1.27,11.60,34.7,778.00,987.7
2019-03-13,12:35:00,DRY,1.35,11.55,39.0,778.00,993.4
2019-03-13,12:40:00,DRY,1.60,11.97,37.0,778.00,998.1
2019-03-13,12:45:00,DRY,0.50,12.10,36.0,778.00,1002.2
2019-03-13,12:50:00,DRY,1.77,12.03,35.0,778.00,1004.8
2019-03-13,12:55:00,DRY,1.35,12.00,35.0,778.00,1007.1
2019-03-13,13:00:00,DRY,0.90,12.43,32.7,778.00,1007.5
2019-03-13,13:05:00,DRY,1.00,12.15,32.5,778.00,1008.6
2019-03-13,13:10:00,DRY,0.83,12.37,32.0,778.00,1014.3
2019-03-13,13:15:00,DRY,1.45,12.30,32.5,778.00,1012.2
2019-03-13,13:20:00,DRY,1.67,11.53,37.0,778.00,1012.3
2019-03-13,13:25:00,DRY,1.00,12.25,47.0,778.00,1010.2
2019-03-13,13:30:00,DRY,2.10,12.50,38.0,778.00,1010.4
2019-03-13,13:35:00,DRY,2.00,11.90,38.0,778.00,1002.6
2019-03-13,13:40:00,DRY,1.57,11.50,36.0,778.00,1004.7
2019-03-13,13:45:00,DRY,2.10,11.65,36.0,778.00,1000.5
2019-03-13,13:50:00,DRY,2.07,11.53,37.3,778.00,997.9
2019-03-13,13:55:00,DRY,1.70,11.50,38.5,778.00,992.5
2019-03-13,14:00:00,DRY,2.00,11.97,35.0,778.00,986.7
2019-03-13,14:05:00,DRY,1.95,11.60,36.5,778.00,979.7
2019-03-13,14:10:00,DRY,2.23,11.20,38.3,778.00,977.2
2019-03-13,14:15:00,DRY,1.60,10.95,38.5,778.00,972.4
2019-03-13,14:20:00,DRY,1.37,11.20,38.7,778.00,966.4
2019-03-13,14:25:00,DRY,1.65,11.45,38.0,778.00,962.0
2019-03-13,14:30:00,DRY,1.33,11.43,43.0,778.00,953.5
2019-03-13,14:35:00,DRY,1.70,11.80,41.5,778.00,950.6
2019-03-13,14:40:00,DRY,1.43,11.70,47.7,778.00,942.0
2019-03-13,14:45:00,DRY,1.75,10.60,42.0,778.00,932.4
2019-03-13,14:50:00,DRY,1.53,11.37,42.7,777.67,921.6
2019-03-13,14:55:00,DRY,0.90,11.05,44.0,777.50,911.7
2019-03-13,15:00:00,DRY,1.53,11.30,42.0,777.33,908.2
2019-03-13,15:05:00,DRY,1.90,11.00,43.5,777.00,899.0
2019-03-13,15:10:00,DRY,1.23,10.77,45.7,777.00,887.0
2019-03-13,15:15:00,DRY,0.95,10.75,47.5,777.00,876.5
2019-03-13,15:20:00,DRY,1.93,11.07,47.7,777.00,862.3
2019-03-13,15:25:00,DRY,1.65,10.75,49.0,777.00,854.9
2019-03-13,15:30:00,DRY,1.60,10.87,47.7,777.00,840.4
2019-03-13,15:35:00,DRY,1.15,10.80,48.5,777.00,828.8
2019-03-13,15:40:00,DRY,1.83,11.37,45.3,777.00,815.2
2019-03-13,15:45:00,DRY,1.50,11.55,44.0,777.00,803.3
2019-03-13,15:50:00,DRY,1.40,11.40,42.7,777.00,791.9
2019-03-13,15:55:00,DRY,1.25,11.25,41.5,777.00,780.4
2019-03-13,16:00:00,DRY,1.03,11.23,41.7,777.00,743.2
2019-03-13,16:05:00,DRY,1.55,11.20,41.5,777.00,639.9
2019-03-13,16:10:00,DRY,1.63,11.27,37.7,777.00,694.1
2019-03-13,16:15:00,DRY,1.95,11.55,38.5,777.00,723.0
2019-03-13,16:20:00,DRY,1.87,11.47,40.0,777.00,704.5
2019-03-13,16:25:00,DRY,2.40,11.05,38.0,777.00,685.2
2019-03-13,16:30:00,DRY,1.77,11.23,34.3,777.00,668.6
2019-03-13,16:35:00,DRY,1.75,12.15,21.0,777.00,652.3
2019-03-13,16:40:00,DRY,2.30,12.27,16.7,777.00,633.2
2019-03-13,16:45:00,DRY,2.10,12.55,16.5,777.00,615.0
2019-03-13,16:50:00,DRY,1.50,12.50,14.3,777.00,596.2
2019-03-13,16:55:00,DRY,1.75,12.50,13.0,777.00,575.5
2019-03-13,17:00:00,DRY,3.43,12.30,13.3,777.00,556.9
2019-03-13,17:05:00,DRY,1.70,12.30,14.5,777.00,538.3
2019-03-13,17:10:00,DRY,2.40,12.17,13.0,777.00,517.4
2019-03-13,17:15:00,DRY,2.15,12.25,20.5,777.00,498.1
2019-03-13,17:20:00,DRY,2.67,12.00,13.7,777.00,475.7
2019-03-13,17:25:00,DRY,2.30,11.90,15.5,777.00,455.1
2019-03-13,17:30:00,DRY,1.63,12.20,13.0,777.00,433.5
2019-03-13,17:35:00,DRY,3.75,12.10,13.0,777.00,411.6
2019-03-13,17:40:00,DRY,2.87,12.00,14.3,777.00,390.8
2019-03-13,17:45:00,DRY,1.90,12.20,14.0,777.00,369.8
2019-03-13,17:50:00,DRY,1.67,11.93,12.7,777.00,348.4
2019-03-13,17:55:00,DRY,2.75,11.75,11.0,777.00,326.1
2019-03-13,18:00:00,DRY,2.43,11.60,12.3,777.00,304.4
2019-03-13,18:05:00,DRY,2.50,11.80,12.5,777.00,281.9
2019-03-13,18:10:00,DRY,2.63,11.73,12.0,777.00,260.6
2019-03-13,18:15:00,DRY,2.80,11.70,13.5,777.00,237.9
2019-03-13,18:20:00,DRY,1.60,11.70,10.7,777.00,218.1
2019-03-13,18:25:00,DRY,2.40,11.45,9.5,777.00,194.1
2019-03-13,18:30:00,DRY,1.70,11.37,10.0,777.00,175.0
2019-03-13,18:35:00,DRY,1.85,11.55,10.5,777.00,113.9